Regional Weather Roundup
Issued by NWS

Home | Current Version | Previous Version | Text Only | Print | Product List | Glossary Off
Versions: 1 2 3 4 5 6 7 8 9 10 11 12 13 14 15 16 17 18 19 20 21 22 23 24 25 26 27 28 29 30 31 32 33 34 35 36 37 38 39 40 41 42 43 44 45 46 47 48 49 50

000
ASUS43 KDMX 041807
RWRIA

WEATHER ROUNDUP FOR IOWA
NATIONAL WEATHER SERVICE DES MOINES IA
100 PM CDT TUE AUG 04 2015

NOTE: "FAIR" INDICATES FEW OR NO CLOUDS BELOW 12,000 FEET WITH NO
SIGNIFICANT WEATHER AND/OR OBSTRUCTIONS TO VISIBILITY.

* - THESE STATIONS ARE NOT NWS STATIONS...THUS NOT UNDER NWS
QUALITY CONTROL.  THEY ALSO DO NOT REPORT WEATHER SUCH
AS PRECIPITATION OR FOG.

IAZ001>003-012>014-020>022-031>034-043>046-041900-
   NORTHWEST IOWA

CITY           SKY/WX    TMP DP  RH WIND       PRES   REMARKS
CARROLL *      SUNNY     72  64  78 SE5       30.01F
CHEROKEE *     CLOUDY    76  64  66 SE7       30.00F
DENISON *      SUNNY     72  63  73 E9        29.96F
LE MARS *      SUNNY     75  64  69 SE12      29.97F
ORANGE CITY *  SUNNY     73  63  68 SE7       29.98F
SHELDON *      SUNNY     75  61  60 SE12      29.99F
SIOUX CITY     CLOUDY    73  63  70 E14       29.92F
6HR MIN TEMP:  67; 6HR MAX TEMP:  73; 6HR PCP: TRACE;

SPENCER        PTSUNNY   76  54  46 SE14      30.02F
6HR MIN TEMP:  55; 6HR MAX TEMP:  77;

STORM LAKE *   SUNNY     73  63  68 SE9       30.02F
$$

IAZ055>058-069>071-079>083-090>094-041900-
   SOUTHWEST IOWA

CITY           SKY/WX    TMP DP  RH WIND       PRES   REMARKS
ATLANTIC *     SUNNY     70  64  83 NE9G17    29.96F
AUDUBON *      SUNNY     70  64  83 NE7       30.00F
CLARINDA *     MOSUNNY   73  70  88 VRB7      30.00F
COUNCIL BLFS * SUNNY     68  64  88 SE15      29.96F
CRESTON *      SUNNY     70  66  88 MISG      30.04S
HARLAN  *      SUNNY     70  70 100 NE6G12    29.98F
LAMONI         LGT RAIN  71  66  84 E6        30.02F
6HR MIN TEMP:  64; 6HR MAX TEMP:  71; 6HR PCP:  0.65;

RED OAK *      SUNNY     73  68  83 VRB6      29.98F
SHENANDOAH *   SUNNY     75  70  83 SE8       29.98F
$$

IAZ047>049-059>061-072>074-084-041900-
   CENTRAL IOWA

CITY           SKY/WX    TMP DP  RH WIND       PRES   REMARKS
AMES           CLOUDY    76  63  64 CALM      30.04R
6HR MIN TEMP:  60; 6HR MAX TEMP:  77;

ANKENY *       CLOUDY    75  64  69 S3        30.03F
CHARITON *     SUNNY     70  59  68 E9        30.01F
DES MOINES     CLOUDY    75  58  55 CALM      30.03F
6HR MIN TEMP:  69; 6HR MAX TEMP:  76; 6HR PCP: TRACE;

GRINNELL*      CLOUDY    77  59  53 SW6       30.05F
KNOXVILLE *    MOSUNNY   72  63  73 CALM      30.02F
MARSHALLTOWN   CLOUDY    75  58  55 SW3       30.03F
6HR MIN TEMP:  59; 6HR MAX TEMP:  77;

PELLA *        DRIZZLE   73  65  77 CALM      30.05F
PERRY *          N/A     75  63  64 CALM      30.03F
$$

IAZ004>006-015-016-023>025-035-036-041900-
   NORTH CENTRAL IOWA

CITY           SKY/WX    TMP DP  RH WIND       PRES   REMARKS
ALGONA *       SUNNY     77  54  44 S10       30.04S
CLARION *      PTSUNNY   75  57  53 CALM      30.05R
ESTHERVILLE    CLOUDY    75  52  44 SE9       30.03F
6HR MIN TEMP:  53; 6HR MAX TEMP:  76;

FORT DODGE *   CLOUDY    75  59  57 S5        30.04F
MASON CITY     CLOUDY    76  53  44 E6        30.05F
6HR MIN TEMP:  57; 6HR MAX TEMP:  78;

FOREST CITY *  SUNNY     73  52  46 E5        30.04S
IOWA FALLS *     N/A     76  55  48 CALM      30.05S
$$

IAZ007>011-017>019-026>030-037>042-050>054-066-041900-
   NORTHEAST IOWA

CITY           SKY/WX    TMP DP  RH WIND       PRES   REMARKS
CEDAR RAPIDS   CLOUDY    77  64  64 SW6       30.02F
6HR MIN TEMP:  58; 6HR MAX TEMP:  77;

CHARLES CITY * SUNNY     75  52  43 CALM      30.04F
CLINTON *      MOSUNNY   77  59  53 NW12      30.04S
DECORAH *      SUNNY     73  54  49 CALM      30.03F
DUBUQUE        PTSUNNY   77  55  46 NW7       30.03R
6HR MIN TEMP:  56; 6HR MAX TEMP:  77;

MONTICELLO *   SUNNY     79  57  47 W10G17    30.02S HX  80
OELWEIN *      SUNNY     75  57  53 N8        30.04F
WATERLOO       PTSUNNY   78  55  44 NW6       30.01F
6HR MIN TEMP:  58; 6HR MAX TEMP:  79;

$$

IAZ064-065-067-068-078-041900-
   EAST CENTRAL IOWA

CITY           SKY/WX    TMP DP  RH WIND       PRES   REMARKS
DAVENPORT      PTSUNNY   78  59  51 W8        30.02S
6HR MIN TEMP:  59; 6HR MAX TEMP:  79;

IOWA CITY      CLOUDY    79  62  56 W9        30.04S HX  80
6HR MIN TEMP:  61; 6HR MAX TEMP:  79;

MT. PLEASANT * CLOUDY    78  60  53 SW5       30.06S
MUSCATINE *    MOSUNNY   79  59  50 W12       30.04R HX  80
QUAD CITIES    CLOUDY    81  58  45 W14       30.01S HX  81
6HR MIN TEMP:  61; 6HR MAX TEMP:  82;

$$

IAZ062-063-075>077-085>089-095>099-041900-
   SOUTHEAST IOWA

CITY           SKY/WX    TMP DP  RH WIND       PRES   REMARKS
BURLINGTON     CLOUDY    76  63  64 W8        30.06R
6HR MIN TEMP:  64; 6HR MAX TEMP:  78;

FAIRFIELD *    SUNNY     73  61  64 SW7       30.06F
FORT MADISON * MOSUNNY   73  64  73 SW7       30.08R
KEOKUK *       LGT RAIN  68  66  94 W6        30.07R
OSKALOOSA *      N/A     74  62  66 CALM      30.04F
CENTERVILLE *    N/A     64  61  88 E5        30.03F
OTTUMWA        CLOUDY    72  64  76 S6        30.03F
6HR MIN TEMP:  62; 6HR MAX TEMP:  72;

WASHINGTON *   SUNNY     75  64  69 SW7       30.06S
$$

ABBREVIATIONS USED IN REMARKS
   TC - TEMPERATURES IN CELSIUS
  WCI - WIND CHILL INDEX
   HX - HEAT INDEX
  VSB - VISIBILITY
$$



USA.gov is the U.S. government's official web portal to all federal, state and local government web resources and services.